User: anonymous
Location: Vancouver
(49.2500°N, 123.1330°W)
Time: 20:20:59
(UTC-07:00)
Language:

Cosmos 1340 Rocket - Orbit

View from above orbital plane
View from above orbital plane
View from above satellite
View from above satellite

Ground track
Ground track

The orbit data is extracted from the following two-line orbital elements,

1 13068U 82013B   14211.12035630  .00000794  00000-0  55131-4 0  4614
2 13068 081.2065 343.0089 0023396 186.6163 173.4754 15.04271976764991
Epoch (UTC): 30 July 2014 02:53:18
Eccentricity: 0.0023396
inclination: 81.2065°
perigee height: 537 km
apogee height: 570 km
right ascension of ascending node: 343.0089°
argument of perigee: 186.6163°
revolutions per day: 15.04271976
mean anomaly at epoch: 173.4754°
orbit number at epoch: 76499

The dashed part of the orbit path shows where the satellite is in the earth's shadow,  

DLR